Location: ????????
(54.9045°N, 39.1041°E)
Time: 02:04:25
(UTC+00:00)

Lacrosse 4 Rocket - Pass Details

Date: 14 April 2024
Orbit: 530 x 592 km, 68.0° (Epoch: 25 May)

Event Time Altitude Azimuth Distance (km) Brightness Sun altitude
Exits shadow 00:17:36 10° 287° (WNW) 1,790 3.7 -16.1°
Maximum altitude 00:20:33 20° 335° (NNW) 1,293 3.4 -15.8°
Drops below altitude 10° 00:23:31 10° 23° (NNE) 1,792 5.0 -15.4°
Sets 00:26:11 0° 41° (NE) 2,684 6.7 -15.2°
